This demonstration page uses our WeatherBlox Daily Observations layout. Learn more.

Hourly Observations for January 8, 2019

Temp ( °F °C ) Dew Point ( °F °C ) Humidity (%) Winds ( mph kmh ) Pressure ( in mb ) Visibility ( mi km ) Precip ( " mm )
12:15 am 00:15 Clear 40 4.3 28 -2.1 63 63 NW 30 48 30.06 1018 10 16.0934 0 0
12:35 am 00:35 Clear 39 3.7 28 -2 67 67 NW 26 43 30.06 1018 10 16.0934 0 0
12:55 am 00:55 Clear 38 3.2 28 -2.1 69 69 NW 21 33 30.09 1019 10 16.0934 0 0
1:15 am 01:15 Clear 37 3 28 -2.3 68 68 WNW 14 22 30.15 1021 10 16.0934 0 0
1:35 am 01:35 Clear 37 2.5 28 -2.5 70 70 WNW 13 20 30.15 1021 10 16.0934 0 0
1:55 am 01:55 Clear 36 2.2 27 -2.6 71 71 NW 14 22 30.18 1022 10 16.0934 0 0
2:15 am 02:15 Clear 37 2.7 27 -3 66 66 NW 20 31 30.18 1022 10 16.0934 0 0
2:35 am 02:35 Clear 37 2.6 26 -3.2 66 66 NW 15 24 30.21 1023 10 16.0934 0 0
2:55 am 02:55 Clear 35 1.8 26 -3.1 70 70 NW 12 19 30.21 1023 10 16.0934 0 0
3:15 am 03:15 Clear 33 0.6 27 -3 77 77 NW 9 15 30.24 1024 10 16.0934 0 0
3:35 am 03:35 Clear 32 0 27 -3 80 80 NW 9 15 30.24 1024 10 16.0934 0 0
3:55 am 03:55 Clear 33 0.7 26 -3.3 75 75 WNW 12 19 30.24 1024 10 16.0934 0 0
4:15 am 04:15 Clear 33 0.6 26 -3.5 74 74 NW 10 17 30.27 1025 10 16.0934 0 0
4:35 am 04:35 Clear 33 0.3 25 -3.7 75 75 WNW 9 15 30.27 1025 10 16.0934 0 0
4:55 am 04:55 Clear 32 0.1 25 -4 74 74 WNW 9 15 30.27 1025 10 16.0934 0 0
5:15 am 05:15 Clear 31 -0.4 24 -4.2 76 76 WNW 9 15 30.3 1026 10 16.0934 0 0
5:35 am 05:35 Clear 32 0.1 24 -4.5 72 72 WNW 9 15 30.3 1026 10 16.0934 0 0
5:55 am 05:55 Clear 32 -0.1 24 -4.2 74 74 WNW 8 13 30.3 1026 10 16.0934 0 0
6:15 am 06:15 Clear 32 0 24 -4.3 73 73 WNW 10 17 30.3 1026 10 16.0934 0 0
6:35 am 06:35 Clear 32 0 24 -4.3 73 73 WNW 9 15 30.33 1027 10 16.0934 0 0
6:55 am 06:55 Clear 31 -0.7 24 -4.5 76 76 W 9 15 30.33 1027 10 16.0934 0 0
7:15 am 07:15 Clear 31 -0.5 24 -4.7 74 74 WNW 9 15 30.33 1027 10 16.0934 0 0
7:35 am 07:35 Clear 30 -1.2 24 -4.6 78 78 WNW 9 15 30.33 1027 10 16.0934 0 0
7:55 am 07:55 Clear 30 -1.2 24 -4.7 77 77 W 6 9 30.36 1028 10 16.0934 0 0
8:15 am 08:15 Sunny 30 -1.1 24 -4.7 77 77 WNW 9 15 30.36 1028 10 16.0934 0 0
8:35 am 08:35 Sunny 31 -0.5 24 -4.6 74 74 WNW 8 13 30.39 1029 10 16.0934 0 0
8:55 am 08:55 Sunny 32 0 23 -4.8 70 70 WNW 9 15 30.39 1029 10 16.0934 0 0
9:15 am 09:15 Sunny 33 0.5 24 -4.5 69 69 WNW 7 11 30.42 1030 10 16.0934 0 0
9:35 am 09:35 Sunny 34 1 25 -4.1 69 69 NW 10 17 30.42 1030 10 16.0934 0 0
9:55 am 09:55 Sunny 35 1.6 24 -4.4 65 65 NW 13 20 30.42 1030 10 16.0934 0 0
10:15 am 10:15 Sunny 36 2.3 23 -4.8 60 60 NW 14 22 30.45 1031 10 16.0934 0 0
10:35 am 10:35 Sunny 37 3 24 -4.7 57 57 NW 10 17 30.42 1030 10 16.0934 0 0
10:55 am 10:55 Sunny 38 3.4 24 -4.5 57 57 NW 14 22 30.45 1031 10 16.0934 0 0
11:15 am 11:15 Sunny 39 3.7 24 -4.5 55 55 NW 14 22 30.45 1031 10 16.0934 0 0
11:35 am 11:35 Sunny 40 4.2 22 -5.3 50 50 NW 14 22 30.45 1031 10 16.0934 0 0
11:55 am 11:55 Sunny 40 4.5 23 -5.2 50 50 NW 15 24 30.45 1031 10 16.0934 0 0
12:15 pm 12:15 Sunny 40 4.6 22 -5.4 49 49 NW 15 24 30.45 1031 10 16.0934 0 0
12:35 pm 12:35 Sunny 41 5 23 -5.2 48 48 NW 14 22 30.45 1031 10 16.0934 0 0
12:55 pm 12:55 Sunny 41 5.2 23 -4.8 49 49 NW 12 19 30.42 1030 10 16.0934 0 0
1:15 pm 13:15 Sunny 42 5.5 22 -5.3 46 46 NW 15 24 30.42 1030 10 16.0934 0 0
1:35 pm 13:35 Sunny 42 5.5 23 -4.9 47 47 NW 12 19 30.42 1030 10 16.0934 0 0
1:55 pm 13:55 Sunny 42 5.7 24 -4.5 48 48 NW 15 24 30.42 1030 10 16.0934 0 0
2:15 pm 14:15 Sunny 42 5.5 22 -5.7 45 45 NW 16 26 30.45 1031 10 16.0934 0 0
2:35 pm 14:35 Sunny 42 5.7 22 -5.5 45 45 NW 13 20 30.45 1031 10 16.0934 0 0
2:55 pm 14:55 Sunny 42 5.7 23 -5.1 46 46 NW 16 26 30.45 1031 10 16.0934 0 0
3:15 pm 15:15 Sunny 42 5.6 23 -4.9 47 47 NW 12 19 30.48 1032 10 16.0934 0 0
3:35 pm 15:35 Sunny 42 5.5 21 -6 44 44 NW 13 20 30.48 1032 10 16.0934 0 0
3:55 pm 15:55 Sunny 41 5.1 23 -5.1 48 48 NW 12 19 30.48 1032 10 16.0934 0 0
4:15 pm 16:15 Sunny 41 5 23 -5 49 49 NW 10 17 30.48 1032 10 16.0934 0 0
4:35 pm 16:35 Sunny 39 4.1 25 -3.7 57 57 WNW 7 11 30.48 1032 10 16.0934 0 0
4:55 pm 16:55 Sunny 39 3.7 24 -4.7 55 55 WNW 7 11 30.48 1032 10 16.0934 0 0
5:15 pm 17:15 Sunny 37 2.9 23 -5 56 56 WNW 6 9 30.5 1033 10 16.0934 0 0
5:35 pm 17:35 Clear 37 2.5 23 -5.1 58 58 WNW 6 9 30.5 1033 10 16.0934 0 0
5:55 pm 17:55 Clear 34 1.2 23 -5.1 63 63 W 6 9 30.5 1033 10 16.0934 0 0
6:15 pm 18:15 Clear 35 1.5 22 -5.5 60 60 WNW 6 9 30.5 1033 10 16.0934 0 0
6:35 pm 18:35 Clear 33 0.5 22 -5.3 65 65 W 5 7 30.53 1034 10 16.0934 0 0
6:55 pm 18:55 Clear 32 0.2 22 -5.7 65 65 WNW 5 7 30.56 1035 10 16.0934 0 0
7:15 pm 19:15 Clear 33 0.4 21 -5.9 63 63 W 6 9 30.56 1035 10 16.0934 0 0
7:35 pm 19:35 Clear 32 0.2 21 -6.1 63 63 W 6 9 30.56 1035 10 16.0934 0 0
7:55 pm 19:55 Clear 32 0 21 -6 64 64 W 6 9 30.56 1035 10 16.0934 0 0
8:15 pm 20:15 Clear 31 -0.5 21 -5.9 67 67 W 6 9 30.56 1035 10 16.0934 0 0
8:35 pm 20:35 Clear 31 -0.3 20 -6.5 63 63 W 6 9 30.56 1035 10 16.0934 0 0
8:55 pm 20:55 Clear 31 -0.4 20 -6.9 62 62 W 8 13 30.56 1035 10 16.0934 0 0
9:15 pm 21:15 Clear 30 -0.9 20 -6.5 66 66 WNW 6 9 30.59 1036 10 16.0934 0 0
9:35 pm 21:35 Clear 28 -2.5 21 -6 77 77 W 3 6 30.62 1037 10 16.0934 0 0
9:55 pm 21:55 Clear 28 -2.5 21 -6.1 77 77 WNW 5 7 30.62 1037 10 16.0934 0 0
10:15 pm 22:15 Clear 27 -2.7 20 -6.4 76 76 NW 3 6 30.62 1037 10 16.0934 0 0
10:35 pm 22:35 Clear 27 -2.8 21 -6.2 78 78 WNW 5 7 30.62 1037 10 16.0934 0 0
10:55 pm 22:55 Clear 26 -3.1 21 -6.2 79 79 WNW 5 7 30.62 1037 10 16.0934 0 0
11:15 pm 23:15 Clear 27 -2.9 20 -6.5 77 77 WNW 5 7 30.62 1037 10 16.0934 0 0
11:35 pm 23:35 Clear 27 -2.6 20 -6.5 75 75 WNW 6 9 30.62 1037 10 16.0934 0 0
11:55 pm 23:55 Clear 27 -2.7 20 -6.9 73 73 NW 6 9 30.62 1037 10 16.0934 0 0

Powered by AerisWeather